Location: Moosomin
(50.1436°N, 101.6668°W)
Time: 20:41:49
(UTC-06:00)

ISS - Visible Passes

Search period start: 17 July 2019 00:00
Search period end: 27 July 2019 00:00
Orbit: 409 x 418 km, 51.6° (Epoch: 18 July)

Date Brightness Start Highest point End Pass type
(mag) Time Alt. Az. Time Alt. Az. Time Alt. Az.
17 Jul -3.6 00:27:41 10° W 00:31:01 72° N 00:34:20 10° ENE visible
17 Jul -3.7 02:04:31 10° WNW 02:07:51 76° N 02:11:10 10° E visible
17 Jul -3.3 03:41:19 10° W 03:44:25 37° SSW 03:47:29 10° SE visible
17 Jul -2.9 22:02:17 10° SSW 22:05:14 29° SSE 22:08:10 10° E visible
17 Jul -3.8 23:38:21 10° WSW 23:41:42 85° NNW 23:45:02 10° ENE visible
18 Jul -3.5 01:15:12 10° WNW 01:18:31 68° N 01:21:50 10° E visible
18 Jul -3.7 02:51:57 10° WNW 02:55:12 53° SSW 02:58:26 10° SE visible
18 Jul -3.9 22:49:03 10° WSW 22:52:23 76° SSE 22:55:43 10° ENE visible
19 Jul -3.4 00:25:51 10° W 00:29:10 65° N 00:32:29 10° E visible
19 Jul -4.0 02:02:37 10° WNW 02:05:56 74° SSW 02:09:14 10° ESE visible
19 Jul -2.4 03:39:48 10° W 03:42:13 19° SW 03:44:38 10° S visible
19 Jul -3.7 21:59:50 10° SW 22:03:06 55° SSE 22:06:23 10° ENE visible
19 Jul -3.5 23:36:28 10° W 23:39:48 67° N 23:43:07 10° E visible
20 Jul -3.9 01:13:16 10° WNW 01:16:37 87° NNE 01:18:32 23° ESE visible
20 Jul -1.8 02:50:10 10° W 02:51:07 16° W 02:51:07 16° W visible
20 Jul -3.6 22:47:05 10° W 22:50:26 75° N 22:53:45 10° ENE visible
21 Jul -3.6 00:23:56 10° WNW 00:27:17 73° N 00:28:56 27° E visible
21 Jul -1.8 02:00:42 10° W 02:01:41 17° W 02:01:41 17° W visible
21 Jul -3.8 21:57:43 10° WSW 22:01:04 90° WSW 22:04:25 10° ENE visible
21 Jul -3.5 23:34:34 10° W 23:37:53 66° N 23:40:27 16° E visible
22 Jul -2.6 01:11:18 10° WNW 01:13:14 31° W 01:13:14 31° W visible
22 Jul -3.4 22:45:09 10° W 22:48:28 65° N 22:51:48 10° E visible
23 Jul -3.9 00:21:55 10° WNW 00:25:04 74° WSW 00:25:04 74° WSW visible
23 Jul -3.5 21:55:44 10° W 21:59:05 69° N 22:02:24 10° ENE visible
23 Jul -3.8 23:32:33 10° WNW 23:35:54 83° NNE 23:37:01 39° E visible
24 Jul -1.2 01:09:24 10° W 01:09:49 13° W 01:09:49 13° W visible
24 Jul -3.6 22:43:09 10° WNW 22:46:30 71° N 22:49:02 16° E visible
25 Jul -2.4 00:19:55 10° W 00:21:51 29° W 00:21:51 29° W visible
25 Jul -3.4 21:53:44 10° W 21:57:04 65° N 22:00:23 10° E visible
25 Jul -3.9 23:30:28 10° WNW 23:33:47 64° SSW 23:33:54 63° S visible
26 Jul -3.9 22:41:03 10° WNW 22:44:25 85° SSW 22:46:01 28° ESE visible
